Voltar ao catálogo

STARLINK-37030

AtivoComunicaçõesSSO
NORAD 68220·PAYLOAD·🇺🇸 United States

Lançado Mar 17, 2026 de Vandenberg Space Force Base

Loading…

Próximas Passagens (próximas 24 horas)

TLE

AtualizadoSource: CelesTrak SupGP

Época: Sep 15, 2026, 03:46 UTC

1 68220C 26053P   26258.15743056  .00013955  00000+0  43368-3 0  2585
2 68220  97.2848 132.0185 0001641  98.3334 320.8987 15.33396835    14

Acompanhe STARLINK-37030 em tempo real com AllMySat

Download on the App Store